• In Hungary
  • List of Countries
  • For 7 days
  • Water Temperature
  • Satellite Maps
  • Weather Map
  • News
  • Weather Widgets
  • user-avatar
    Login

    Hourly Weather Primorsko

    Today, 18 December, Monday

    Time Temperature Precipitation Wind Pressure Humidity
    00:00 +4°C° 0 mm 7 mps 759 mmHg 86%
    01:00 +3°C° 0 mm 6 mps 760 mmHg 86%
    02:00 +3°C° 0 mm 6 mps 760 mmHg 85%
    03:00 +3°C° 0 mm 6 mps 761 mmHg 85%
    04:00 +2°C° 0 mm 6 mps 761 mmHg 85%
    05:00 +2°C° 0 mm 5 mps 762 mmHg 85%
    06:00 +2°C° 0 mm 5 mps 762 mmHg 86%
    07:00 +1°C° 0 mm 5 mps 762 mmHg 86%
    08:00 +1°C° 0 mm 4 mps 763 mmHg 87%
    09:00 +3°C° 0 mm 4 mps 763 mmHg 84%
    10:00 +4°C° 0 mm 4 mps 763 mmHg 80%
    11:00 +5°C° 0 mm 4 mps 763 mmHg 77%
    12:00 +5°C° 0 mm 4 mps 763 mmHg 76%
    13:00 +5°C° 0 mm 4 mps 763 mmHg 76%
    14:00 +7°C° 0 mm 3 mps 763 mmHg 76%
    15:00 +5°C° 0 mm 4 mps 763 mmHg 78%
    16:00 +5°C° 0 mm 4 mps 763 mmHg 80%
    17:00 +4°C° 0 mm 4 mps 763 mmHg 83%
    18:00 +4°C° 0.3 mm 4 mps 763 mmHg 84%
    19:00 +3°C° 0.3 mm 5 mps 763 mmHg 85%
    20:00 +3°C° 0.3 mm 5 mps 763 mmHg 86%
    21:00 +3°C° 1 mm 6 mps 763 mmHg 87%
    22:00 +3°C° 1 mm 6 mps 763 mmHg 87%
    23:00 +3°C° 1 mm 7 mps 763 mmHg 88%

    Tomorrow, 19 December, Tuesday

    Time Temperature Precipitation Wind Pressure Humidity
    00:00 +2°C° 1.1 mm 7 mps 763 mmHg 88%
    01:00 +1°C° 1.1 mm 8 mps 763 mmHg 89%
    02:00 +1°C° 1.1 mm 8 mps 764 mmHg 89%
    03:00 +1°C° 1 mm 8 mps 764 mmHg 90%
    04:00 0°C° 1 mm 8 mps 764 mmHg 90%
    05:00 0°C° 1 mm 8 mps 764 mmHg 91%
    06:00 0°C° 0.9 mm 8 mps 765 mmHg 92%
    07:00 0°C° 0.9 mm 8 mps 765 mmHg 92%
    08:00 -1°C° 0.9 mm 8 mps 766 mmHg 93%
    09:00 -1°C° 0.7 mm 8 mps 766 mmHg 93%
    10:00 -1°C° 0.7 mm 8 mps 767 mmHg 93%
    11:00 -1°C° 0.7 mm 8 mps 768 mmHg 93%
    12:00 -1°C° 0.5 mm 7 mps 768 mmHg 93%
    13:00 -1°C° 0.5 mm 7 mps 768 mmHg 93%
    14:00 -1°C° 0.5 mm 7 mps 768 mmHg 93%
    15:00 -1°C° 0.2 mm 6 mps 769 mmHg 93%
    16:00 -1°C° 0.2 mm 6 mps 769 mmHg 93%
    17:00 -1°C° 0.2 mm 6 mps 769 mmHg 93%
    18:00 -1°C° 0.1 mm 5 mps 770 mmHg 93%
    19:00 -1°C° 0.1 mm 5 mps 770 mmHg 93%
    20:00 -1°C° 0.1 mm 4 mps 771 mmHg 93%
    21:00 -1°C° 0.1 mm 4 mps 771 mmHg 93%
    22:00 -1°C° 0.1 mm 4 mps 771 mmHg 93%
    23:00 -2°C° 0.1 mm 4 mps 771 mmHg 93%

    Day after tomorrow, 20 December, Wednesday

    Time Temperature Precipitation Wind Pressure Humidity
    00:00 -2°C° 0 mm 4 mps 771 mmHg 93%
    01:00 -2°C° 0 mm 4 mps 771 mmHg 93%
    02:00 -3°C° 0 mm 4 mps 771 mmHg 93%
    03:00 -3°C° 0 mm 4 mps 771 mmHg 93%
    04:00 -3°C° 0 mm 4 mps 771 mmHg 93%
    05:00 -3°C° 0 mm 4 mps 771 mmHg 92%
    06:00 -3°C° 0 mm 4 mps 771 mmHg 92%
    07:00 -3°C° 0 mm 4 mps 771 mmHg 92%
    08:00 -3°C° 0 mm 4 mps 771 mmHg 93%
    09:00 -2°C° 0 mm 4 mps 772 mmHg 92%
    10:00 -1°C° 0 mm 4 mps 772 mmHg 90%
    11:00 0°C° 0 mm 4 mps 772 mmHg 89%
    12:00 0°C° 0.1 mm 4 mps 772 mmHg 89%
    13:00 0°C° 0.1 mm 4 mps 771 mmHg 90%
    14:00 +1°C° 0.1 mm 4 mps 771 mmHg 90%
    15:00 0°C° 0 mm 4 mps 771 mmHg 91%
    16:00 -1°C° 0 mm 4 mps 771 mmHg 92%
    17:00 -2°C° 0 mm 4 mps 771 mmHg 93%
    18:00 -2°C° 0 mm 4 mps 772 mmHg 92%
    19:00 -3°C° 0 mm 4 mps 772 mmHg 92%
    20:00 -3°C° 0 mm 4 mps 772 mmHg 92%
    21:00 -2°C° 0 mm 3 mps 772 mmHg 91%
    22:00 -2°C° 0 mm 3 mps 772 mmHg 91%
    23:00 -2°C° 0 mm 3 mps 772 mmHg 90%

    21 December, Thursday

    Time Temperature Precipitation Wind Pressure Humidity
    00:00 -4°C° 0 mm 3 mps 772 mmHg 89%
    01:00 -4°C° 0 mm 3 mps 772 mmHg 88%
    02:00 -4°C° 0 mm 3 mps 772 mmHg 87%
    03:00 -4°C° 0 mm 3 mps 772 mmHg 86%
    04:00 -4°C° 0 mm 3 mps 772 mmHg 85%
    05:00 -4°C° 0 mm 3 mps 772 mmHg 85%
    06:00 -4°C° 0 mm 3 mps 773 mmHg 84%
    07:00 -4°C° 0 mm 3 mps 773 mmHg 84%
    08:00 -4°C° 0 mm 3 mps 773 mmHg 83%
    09:00 -2°C° 0 mm 3 mps 773 mmHg 82%
    10:00 0°C° 0 mm 3 mps 773 mmHg 80%
    11:00 +1°C° 0 mm 3 mps 773 mmHg 78%
    12:00 +1°C° 0 mm 3 mps 773 mmHg 78%
    13:00 +2°C° 0 mm 3 mps 772 mmHg 78%
    14:00 +2°C° 0 mm 3 mps 772 mmHg 78%
    15:00 +1°C° 0 mm 3 mps 772 mmHg 81%
    16:00 0°C° 0 mm 3 mps 772 mmHg 83%
    17:00 -1°C° 0 mm 3 mps 772 mmHg 85%
    18:00 -2°C° 0 mm 3 mps 772 mmHg 84%
    19:00 -2°C° 0 mm 3 mps 772 mmHg 84%
    20:00 -2°C° 0 mm 3 mps 772 mmHg 83%
    21:00 -2°C° 0 mm 3 mps 772 mmHg 82%
    22:00 -4°C° 0 mm 4 mps 772 mmHg 82%
    23:00 -4°C° 0 mm 4 mps 772 mmHg 82%

    22 December, Friday

    Time Temperature Precipitation Wind Pressure Humidity
    00:00 -4°C° 0 mm 4 mps 772 mmHg 81%
    01:00 -4°C° 0 mm 4 mps 771 mmHg 81%
    02:00 -5°C° 0 mm 4 mps 771 mmHg 81%
    03:00 -5°C° 0 mm 4 mps 771 mmHg 80%
    04:00 -5°C° 0 mm 4 mps 771 mmHg 79%
    05:00 -5°C° 0 mm 4 mps 770 mmHg 79%
    06:00 -5°C° 0 mm 4 mps 770 mmHg 78%
    07:00 -5°C° 0 mm 3 mps 770 mmHg 77%
    08:00 -5°C° 0 mm 3 mps 770 mmHg 75%
    09:00 -4°C° 0 mm 3 mps 770 mmHg 73%
    10:00 -1°C° 0 mm 3 mps 770 mmHg 70%
    11:00 +1°C° 0 mm 3 mps 770 mmHg 67%
    12:00 +1°C° 0 mm 3 mps 769 mmHg 67%
    13:00 +1°C° 0 mm 4 mps 769 mmHg 67%
    14:00 +1°C° 0 mm 4 mps 768 mmHg 68%
    15:00 0°C° 0 mm 4 mps 768 mmHg 71%
    16:00 -1°C° 0 mm 4 mps 767 mmHg 74%
    17:00 -2°C° 0 mm 4 mps 767 mmHg 77%
    18:00 -2°C° 0 mm 4 mps 767 mmHg 76%
    19:00 -2°C° 0 mm 4 mps 767 mmHg 74%
    20:00 -2°C° 0 mm 5 mps 766 mmHg 73%
    21:00 -2°C° 0 mm 5 mps 766 mmHg 74%
    22:00 -1°C° 0 mm 5 mps 766 mmHg 76%
    23:00 -1°C° 0 mm 5 mps 766 mmHg 77%

    23 December, Saturday

    Time Temperature Precipitation Wind Pressure Humidity
    00:00 -1°C° 0 mm 5 mps 766 mmHg 80%
    01:00 -2°C° 0 mm 6 mps 765 mmHg 82%
    02:00 -3°C° 0 mm 6 mps 765 mmHg 85%
    03:00 -3°C° 0 mm 6 mps 765 mmHg 86%
    04:00 -2°C° 0 mm 6 mps 765 mmHg 87%
    05:00 -2°C° 0 mm 6 mps 765 mmHg 88%
    06:00 -2°C° 0 mm 6 mps 765 mmHg 88%
    07:00 -2°C° 0 mm 5 mps 766 mmHg 88%
    08:00 -2°C° 0 mm 5 mps 766 mmHg 89%
    09:00 -1°C° 0 mm 5 mps 765 mmHg 85%
    10:00 +1°C° 0 mm 5 mps 765 mmHg 81%
    11:00 +3°C° 0 mm 4 mps 765 mmHg 77%
    12:00 +3°C° 0 mm 4 mps 764 mmHg 77%
    13:00 +4°C° 0 mm 4 mps 764 mmHg 76%
    14:00 +4°C° 0 mm 4 mps 763 mmHg 76%
    15:00 +3°C° 0 mm 4 mps 763 mmHg 79%
    16:00 0°C° 0 mm 4 mps 762 mmHg 82%
    17:00 -1°C° 0 mm 4 mps 762 mmHg 84%
    18:00 0°C° 0 mm 3 mps 762 mmHg 84%
    19:00 0°C° 0 mm 3 mps 762 mmHg 84%
    20:00 0°C° 0 mm 3 mps 762 mmHg 83%
    21:00 0°C° 0 mm 3 mps 761 mmHg 84%
    22:00 0°C° 0 mm 3 mps 761 mmHg 84%
    23:00 0°C° 0 mm 3 mps 761 mmHg 84%
    Show more